Time,TemperatureF,DewpointF,PressureIn,WindDirection,WindDirectionDegrees,WindSpeedMPH,WindSpeedGustMPH,Humidity,HourlyPrecipIn,Conditions,Clouds,dailyrainin,SoftwareType,DateUTC
2013-09-03 00:02:00,54.7,53.8,28.86,SW,225,0.0,0.0,97,0.00,,,0.00,WeatherDisplay:10.37,2013-09-03 05:02:00,
2013-09-03 00:07:00,54.7,53.8,28.86,SW,225,0.0,0.0,97,0.00,,,0.00,WeatherDisplay:10.37,2013-09-03 05:07:00,
2013-09-03 00:12:00,54.5,53.7,28.86,SW,225,1.2,0.0,97,0.00,,,0.00,WeatherDisplay:10.37,2013-09-03 05:12:00,
2013-09-03 00:17:00,54.3,53.5,28.86,SW,225,0.0,0.0,97,0.00,,,0.00,WeatherDisplay:10.37,2013-09-03 05:17:00,
2013-09-03 00:22:00,54.3,53.5,28.87,SW,225,1.2,0.0,97,0.00,,,0.00,WeatherDisplay:10.37,2013-09-03 05:22:00,
2013-09-03 00:27:00,54.3,53.5,28.87,SW,225,0.0,0.0,97,0.00,,,0.00,WeatherDisplay:10.37,2013-09-03 05:27:00,
2013-09-03 00:32:00,54.0,53.1,28.87,SW,225,1.2,0.0,97,0.00,,,0.00,WeatherDisplay:10.37,2013-09-03 05:32:00,
2013-09-03 00:37:00,53.6,52.8,28.86,SW,225,0.0,0.0,97,0.00,,,0.00,WeatherDisplay:10.37,2013-09-03 05:37:00,
2013-09-03 00:42:00,53.4,52.6,28.86,SW,225,0.0,0.0,97,0.00,,,0.00,WeatherDisplay:10.37,2013-09-03 05:42:00,
2013-09-03 00:47:00,53.4,52.6,28.87,SW,225,1.2,0.0,97,0.00,,,0.00,WeatherDisplay:10.37,2013-09-03 05:47:00,
2013-09-03 00:52:00,53.2,52.7,28.87,SSW,202,1.6,0.0,98,0.00,,,0.00,WeatherDisplay:10.37,2013-09-03 05:52:00,
2013-09-03 00:57:00,53.4,52.9,28.86,South,180,1.2,0.0,98,0.00,,,0.00,WeatherDisplay:10.37,2013-09-03 05:57:00,
2013-09-03 01:02:00,53.4,52.9,28.86,South,180,1.2,0.0,98,0.00,,,0.00,WeatherDisplay:10.37,2013-09-03 06:02:00,
2013-09-03 01:07:00,53.4,52.9,28.86,South,180,1.2,0.0,98,0.00,,,0.00,WeatherDisplay:10.37,2013-09-03 06:07:00,
2013-09-03 01:12:00,53.2,52.7,28.87,South,180,0.0,0.0,98,0.00,,,0.00,WeatherDisplay:10.37,2013-09-03 06:12:00,
2013-09-03 01:17:00,53.1,52.5,28.86,South,180,0.0,0.0,98,0.00,,,0.00,WeatherDisplay:10.37,2013-09-03 06:17:00,
2013-09-03 01:22:00,53.1,52.5,28.86,South,180,0.0,0.7,98,0.00,,,0.00,WeatherDisplay:10.37,2013-09-03 06:22:00,
2013-09-03 01:27:00,53.4,52.9,28.87,East,90,2.3,2.3,98,0.00,,,0.00,WeatherDisplay:10.37,2013-09-03 06:27:00,
2013-09-03 01:32:00,53.4,52.9,28.87,East,90,1.2,0.0,98,0.00,,,0.00,WeatherDisplay:10.37,2013-09-03 06:32:00,
2013-09-03 01:37:00,53.2,52.7,28.87,East,90,1.2,0.0,98,0.00,,,0.00,WeatherDisplay:10.37,2013-09-03 06:37:00,
2013-09-03 01:42:00,53.2,53.0,28.86,East,90,0.0,0.0,99,0.00,,,0.00,WeatherDisplay:10.37,2013-09-03 06:42:00,
2013-09-03 01:47:00,53.4,53.1,28.86,East,90,2.3,2.3,99,0.00,,,0.00,WeatherDisplay:10.37,2013-09-03 06:47:00,
2013-09-03 01:52:00,53.6,53.3,28.86,East,90,1.2,0.0,99,0.00,,,0.00,WeatherDisplay:10.37,2013-09-03 06:52:00,
2013-09-03 01:57:00,53.6,53.3,28.87,East,90,1.2,0.0,99,0.00,,,0.00,WeatherDisplay:10.37,2013-09-03 06:57:00,
2013-09-03 02:02:00,53.6,53.3,28.87,East,90,1.2,0.0,99,0.00,,,0.00,WeatherDisplay:10.37,2013-09-03 07:02:00,
2013-09-03 02:07:00,53.4,53.1,28.87,East,90,1.2,0.0,99,0.00,,,0.00,WeatherDisplay:10.37,2013-09-03 07:07:00,
2013-09-03 02:12:00,53.1,52.8,28.87,East,90,0.0,0.0,99,0.00,,,0.00,WeatherDisplay:10.37,2013-09-03 07:12:00,
2013-09-03 02:17:00,52.9,52.6,28.87,East,90,0.7,0.0,99,0.00,,,0.00,WeatherDisplay:10.37,2013-09-03 07:17:00,
2013-09-03 02:22:00,53.1,52.8,28.87,East,90,1.2,1.2,99,0.00,,,0.00,WeatherDisplay:10.37,2013-09-03 07:22:00,
2013-09-03 02:27:00,53.2,53.0,28.87,NE,45,1.2,1.2,99,0.00,,,0.00,WeatherDisplay:10.37,2013-09-03 07:27:00,
2013-09-03 02:32:00,53.2,53.0,28.87,NE,45,3.5,3.5,99,0.00,,,0.00,WeatherDisplay:10.37,2013-09-03 07:32:00,
2013-09-03 02:37:00,53.4,53.1,28.87,NE,45,2.3,2.3,99,0.00,,,0.00,WeatherDisplay:10.37,2013-09-03 07:37:00,
2013-09-03 02:42:00,53.4,53.1,28.87,NE,45,0.0,0.0,99,0.00,,,0.00,WeatherDisplay:10.37,2013-09-03 07:42:00,
2013-09-03 02:47:00,53.1,52.8,28.87,NE,45,0.0,0.0,99,0.00,,,0.00,WeatherDisplay:10.37,2013-09-03 07:47:00,
2013-09-03 02:52:00,52.9,52.6,28.87,NE,45,0.0,0.0,99,0.00,,,0.00,WeatherDisplay:10.37,2013-09-03 07:52:00,
2013-09-03 02:57:00,53.1,52.8,28.87,NE,45,1.2,0.0,99,0.00,,,0.00,WeatherDisplay:10.37,2013-09-03 07:57:00,
2013-09-03 03:02:00,53.1,52.8,28.87,East,90,1.2,1.2,99,0.00,,,0.00,WeatherDisplay:10.37,2013-09-03 08:02:00,
2013-09-03 03:07:00,52.9,52.6,28.87,SE,135,1.2,0.0,99,0.00,,,0.00,WeatherDisplay:10.37,2013-09-03 08:07:00,
2013-09-03 03:12:00,52.7,52.4,28.87,SE,135,1.2,0.0,99,0.00,,,0.00,WeatherDisplay:10.37,2013-09-03 08:12:00,
2013-09-03 03:17:00,52.7,52.4,28.87,West,270,0.0,0.0,99,0.00,,,0.00,WeatherDisplay:10.37,2013-09-03 08:17:00,
2013-09-03 03:22:00,52.7,52.4,28.87,West,270,0.0,0.0,99,0.00,,,0.00,WeatherDisplay:10.37,2013-09-03 08:22:00,
2013-09-03 03:27:00,52.0,51.7,28.87,West,270,0.0,0.0,99,0.00,,,0.00,WeatherDisplay:10.37,2013-09-03 08:27:00,
2013-09-03 03:32:00,52.0,51.7,28.88,West,270,1.2,0.0,99,0.00,,,0.00,WeatherDisplay:10.37,2013-09-03 08:32:00,
2013-09-03 03:37:00,52.0,51.7,28.87,West,270,1.2,0.0,99,0.00,,,0.00,WeatherDisplay:10.37,2013-09-03 08:37:00,
2013-09-03 03:42:00,52.2,51.9,28.87,SW,225,1.2,1.2,99,0.00,,,0.00,WeatherDisplay:10.37,2013-09-03 08:42:00,
2013-09-03 03:47:00,52.2,51.9,28.87,SW,225,1.6,1.6,99,0.00,,,0.00,WeatherDisplay:10.37,2013-09-03 08:47:00,
2013-09-03 03:52:00,52.2,51.9,28.88,SW,225,1.2,0.0,99,0.00,,,0.00,WeatherDisplay:10.37,2013-09-03 08:52:00,
2013-09-03 03:57:00,52.0,51.7,28.88,SW,225,1.2,0.0,99,0.00,,,0.00,WeatherDisplay:10.37,2013-09-03 08:57:00,
2013-09-03 04:02:00,51.8,51.5,28.88,SW,225,0.0,0.0,99,0.00,,,0.00,WeatherDisplay:10.37,2013-09-03 09:02:00,
2013-09-03 04:07:00,51.8,51.5,28.88,SW,225,0.0,0.0,99,0.00,,,0.00,WeatherDisplay:10.37,2013-09-03 09:07:00,
2013-09-03 04:12:00,51.6,51.3,28.88,SW,225,1.2,1.2,99,0.00,,,0.00,WeatherDisplay:10.37,2013-09-03 09:12:00,
2013-09-03 04:17:00,51.8,51.5,28.88,SW,225,1.2,1.2,99,0.00,,,0.00,WeatherDisplay:10.37,2013-09-03 09:17:00,
2013-09-03 04:22:00,52.0,51.7,28.88,South,180,1.2,0.0,99,0.00,,,0.00,WeatherDisplay:10.37,2013-09-03 09:22:00,
2013-09-03 04:27:00,52.0,51.7,28.88,South,180,1.2,0.0,99,0.00,,,0.00,WeatherDisplay:10.37,2013-09-03 09:27:00,
2013-09-03 04:32:00,52.0,51.7,28.88,South,180,0.0,0.0,99,0.00,,,0.00,WeatherDisplay:10.37,2013-09-03 09:32:00,
2013-09-03 04:37:00,52.2,51.9,28.88,South,180,0.0,0.0,99,0.00,,,0.00,WeatherDisplay:10.37,2013-09-03 09:37:00,
2013-09-03 04:42:00,52.0,51.7,28.88,South,180,0.0,0.0,99,0.00,,,0.00,WeatherDisplay:10.37,2013-09-03 09:42:00,
2013-09-03 04:47:00,52.0,51.7,28.88,South,180,0.0,0.0,99,0.00,,,0.00,WeatherDisplay:10.37,2013-09-03 09:47:00,
2013-09-03 04:52:00,52.2,51.9,28.88,NE,45,1.2,1.2,99,0.00,,,0.00,WeatherDisplay:10.37,2013-09-03 09:52:00,
2013-09-03 04:57:00,52.2,51.9,28.88,NE,45,1.2,0.0,99,0.00,,,0.00,WeatherDisplay:10.37,2013-09-03 09:57:00,
2013-09-03 05:02:00,52.2,51.9,28.89,NE,45,1.2,0.0,99,0.00,,,0.00,WeatherDisplay:10.37,2013-09-03 10:02:00,
2013-09-03 05:07:00,52.2,51.9,28.88,NE,45,1.2,0.0,99,0.00,,,0.00,WeatherDisplay:10.37,2013-09-03 10:07:00,
2013-09-03 05:12:00,52.0,51.7,28.88,NE,45,0.0,0.0,99,0.00,,,0.00,WeatherDisplay:10.37,2013-09-03 10:12:00,
2013-09-03 05:17:00,52.0,51.7,28.89,NE,45,0.0,0.0,99,0.00,,,0.00,WeatherDisplay:10.37,2013-09-03 10:17:00,
2013-09-03 05:22:00,52.0,51.7,28.89,NE,45,1.2,0.0,99,0.00,,,0.00,WeatherDisplay:10.37,2013-09-03 10:22:00,
2013-09-03 05:27:00,51.8,51.5,28.89,NE,45,0.0,0.0,99,0.00,,,0.00,WeatherDisplay:10.37,2013-09-03 10:27:00,
2013-09-03 05:32:00,51.6,51.3,28.89,NE,45,1.2,0.0,99,0.00,,,0.00,WeatherDisplay:10.37,2013-09-03 10:32:00,
2013-09-03 05:37:00,51.6,51.3,28.90,NE,45,0.0,0.0,99,0.00,,,0.00,WeatherDisplay:10.37,2013-09-03 10:37:00,
2013-09-03 05:42:00,51.6,51.3,28.90,NE,45,0.0,0.0,99,0.00,,,0.00,WeatherDisplay:10.37,2013-09-03 10:42:00,
2013-09-03 05:47:00,52.0,51.7,28.90,NE,45,1.2,0.0,99,0.00,,,0.00,WeatherDisplay:10.37,2013-09-03 10:47:00,
2013-09-03 05:52:00,52.3,52.1,28.90,NW,315,2.3,2.3,99,0.00,,,0.00,WeatherDisplay:10.37,2013-09-03 10:52:00,
2013-09-03 05:57:00,52.2,51.9,28.90,NW,315,0.0,0.0,99,0.00,,,0.00,WeatherDisplay:10.37,2013-09-03 10:57:00,
2013-09-03 06:02:00,52.2,51.9,28.90,NW,315,0.0,0.0,99,0.00,,,0.00,WeatherDisplay:10.37,2013-09-03 11:02:00,
2013-09-03 06:07:00,52.2,51.9,28.90,NW,315,0.0,0.0,99,0.00,,,0.00,WeatherDisplay:10.37,2013-09-03 11:07:00,
2013-09-03 06:12:00,52.2,51.9,28.90,NE,45,1.2,0.0,99,0.00,,,0.00,WeatherDisplay:10.37,2013-09-03 11:12:00,
2013-09-03 06:17:00,52.2,51.9,28.90,NE,45,0.0,0.0,99,0.00,,,0.00,WeatherDisplay:10.37,2013-09-03 11:17:00,
2013-09-03 06:22:00,52.2,51.9,28.89,NE,45,0.0,0.0,99,0.00,,,0.00,WeatherDisplay:10.37,2013-09-03 11:22:00,
2013-09-03 06:27:00,52.5,52.2,28.90,NE,45,0.0,0.0,99,0.00,,,0.00,WeatherDisplay:10.37,2013-09-03 11:27:00,
2013-09-03 06:32:00,52.3,52.1,28.90,NE,45,0.0,0.0,99,0.00,,,0.00,WeatherDisplay:10.37,2013-09-03 11:32:00,
2013-09-03 06:37:00,52.3,52.1,28.90,NE,45,1.2,0.0,99,0.00,,,0.00,WeatherDisplay:10.37,2013-09-03 11:37:00,
2013-09-03 06:42:00,52.2,51.9,28.90,South,180,1.2,1.2,99,0.00,,,0.00,WeatherDisplay:10.37,2013-09-03 11:42:00,
2013-09-03 06:47:00,52.0,51.7,28.90,South,180,1.2,0.0,99,0.00,,,0.00,WeatherDisplay:10.37,2013-09-03 11:47:00,
2013-09-03 06:52:00,51.8,51.5,28.89,South,180,1.2,0.0,99,0.00,,,0.00,WeatherDisplay:10.37,2013-09-03 11:52:00,
2013-09-03 06:57:00,51.8,51.5,28.89,South,180,1.2,0.0,99,0.00,,,0.00,WeatherDisplay:10.37,2013-09-03 11:57:00,
2013-09-03 07:02:00,52.0,51.7,28.89,South,180,1.2,1.2,99,0.00,,,0.00,WeatherDisplay:10.37,2013-09-03 12:02:00,
2013-09-03 07:07:00,52.3,52.1,28.90,South,180,2.3,2.3,99,0.00,,,0.00,WeatherDisplay:10.37,2013-09-03 12:07:00,
2013-09-03 07:12:00,52.5,52.2,28.90,South,180,2.3,2.3,99,0.00,,,0.00,WeatherDisplay:10.37,2013-09-03 12:12:00,
2013-09-03 07:17:00,52.7,52.4,28.89,South,180,1.2,0.0,99,0.00,,,0.00,WeatherDisplay:10.37,2013-09-03 12:17:00,
2013-09-03 07:22:00,53.4,53.1,28.89,South,180,1.2,1.2,99,0.00,,,0.00,WeatherDisplay:10.37,2013-09-03 12:22:00,
2013-09-03 07:27:00,54.0,53.7,28.89,South,180,2.3,0.0,99,0.00,,,0.00,WeatherDisplay:10.37,2013-09-03 12:27:00,
2013-09-03 07:32:00,54.9,54.6,28.89,SE,135,2.3,2.3,99,0.00,,,0.00,WeatherDisplay:10.37,2013-09-03 12:32:00,
2013-09-03 07:37:00,55.6,55.3,28.89,South,180,1.2,1.6,99,0.00,,,0.00,WeatherDisplay:10.37,2013-09-03 12:37:00,
2013-09-03 07:42:00,56.1,55.8,28.90,SSW,202,1.2,1.2,99,0.00,,,0.00,WeatherDisplay:10.37,2013-09-03 12:42:00,
2013-09-03 07:47:00,56.7,56.4,28.90,South,180,2.3,2.3,99,0.00,,,0.00,WeatherDisplay:10.37,2013-09-03 12:47:00,
2013-09-03 07:52:00,57.2,56.9,28.90,South,180,2.3,2.3,99,0.00,,,0.00,WeatherDisplay:10.37,2013-09-03 12:52:00,
2013-09-03 07:57:00,57.7,57.5,28.90,South,180,3.5,3.5,99,0.00,,,0.00,WeatherDisplay:10.37,2013-09-03 12:57:00,
2013-09-03 08:02:00,58.1,57.8,28.90,South,180,3.5,3.5,99,0.00,,,0.00,WeatherDisplay:10.37,2013-09-03 13:02:00,
2013-09-03 08:07:00,58.1,57.8,28.90,South,180,3.5,3.5,99,0.00,,,0.00,WeatherDisplay:10.37,2013-09-03 13:07:00,
2013-09-03 08:12:00,59.7,59.2,28.90,South,180,3.5,3.5,98,0.00,,,0.00,WeatherDisplay:10.37,2013-09-03 13:12:00,
2013-09-03 08:17:00,60.4,59.6,28.90,South,180,3.5,3.5,97,0.00,,,0.00,WeatherDisplay:10.37,2013-09-03 13:17:00,
2013-09-03 08:22:00,61.3,59.9,28.90,SE,135,3.5,3.5,95,0.00,,,0.00,WeatherDisplay:10.37,2013-09-03 13:22:00,
2013-09-03 08:27:00,61.5,59.5,28.90,SE,135,3.5,3.8,93,0.00,,,0.00,WeatherDisplay:10.37,2013-09-03 13:27:00,
2013-09-03 08:32:00,61.7,59.0,28.90,SE,135,4.6,4.6,91,0.00,,,0.00,WeatherDisplay:10.37,2013-09-03 13:32:00,
2013-09-03 08:37:00,61.9,58.6,28.90,SE,135,5.8,5.8,89,0.00,,,0.00,WeatherDisplay:10.37,2013-09-03 13:37:00,
2013-09-03 08:42:00,62.4,59.1,28.90,South,180,5.8,5.8,89,0.00,,,0.00,WeatherDisplay:10.37,2013-09-03 13:42:00,
2013-09-03 08:47:00,63.0,59.3,28.90,South,180,5.8,5.8,88,0.00,,,0.00,WeatherDisplay:10.37,2013-09-03 13:47:00,
2013-09-03 08:52:00,63.3,59.4,28.90,SE,135,5.8,5.8,87,0.00,,,0.00,WeatherDisplay:10.37,2013-09-03 13:52:00,
2013-09-03 08:57:00,64.0,60.4,28.90,SE,135,4.6,4.6,88,0.00,,,0.00,WeatherDisplay:10.37,2013-09-03 13:57:00,
2013-09-03 09:02:00,64.4,60.1,28.90,SSE,158,4.6,4.6,86,0.00,,,0.00,WeatherDisplay:10.37,2013-09-03 14:02:00,
2013-09-03 09:07:00,64.4,60.1,28.90,SSE,158,4.6,4.6,86,0.00,,,0.00,WeatherDisplay:10.37,2013-09-03 14:07:00,
2013-09-03 09:12:00,65.1,60.2,28.90,South,180,8.1,8.1,84,0.00,,,0.00,WeatherDisplay:10.37,2013-09-03 14:12:00,
2013-09-03 09:17:00,65.3,60.3,28.90,SSE,158,8.1,8.1,84,0.00,,,0.00,WeatherDisplay:10.37,2013-09-03 14:17:00,
2013-09-03 09:22:00,65.8,60.5,28.90,South,180,9.2,9.2,83,0.00,,,0.00,WeatherDisplay:10.37,2013-09-03 14:22:00,
2013-09-03 09:27:00,66.2,60.5,28.91,South,180,8.1,8.1,82,0.00,,,0.00,WeatherDisplay:10.37,2013-09-03 14:27:00,
2013-09-03 09:32:00,66.4,60.7,28.90,SE,135,8.1,8.1,82,0.00,,,0.00,WeatherDisplay:10.37,2013-09-03 14:32:00,
2013-09-03 09:37:00,66.9,61.6,28.90,SSE,158,10.4,10.4,83,0.00,,,0.00,WeatherDisplay:10.37,2013-09-03 14:37:00,
2013-09-03 09:42:00,67.3,60.9,28.90,South,180,10.4,10.4,80,0.00,,,0.00,WeatherDisplay:10.37,2013-09-03 14:42:00,
2013-09-03 09:47:00,67.8,61.4,28.90,SSE,158,10.4,10.4,80,0.00,,,0.00,WeatherDisplay:10.37,2013-09-03 14:47:00,
2013-09-03 09:52:00,68.2,61.1,28.90,South,180,9.2,9.2,78,0.00,,,0.00,WeatherDisplay:10.37,2013-09-03 14:52:00,
2013-09-03 09:57:00,68.4,60.9,28.90,South,180,9.2,9.2,77,0.00,,,0.00,WeatherDisplay:10.37,2013-09-03 14:57:00,
2013-09-03 10:02:00,68.7,61.2,28.90,South,180,10.4,10.4,77,0.00,,,0.00,WeatherDisplay:10.37,2013-09-03 15:02:00,
2013-09-03 10:07:00,69.3,60.6,28.90,South,180,10.4,10.4,74,0.00,,,0.00,WeatherDisplay:10.37,2013-09-03 15:07:00,
2013-09-03 10:12:00,69.8,61.1,28.90,South,180,8.1,8.1,74,0.00,,,0.00,WeatherDisplay:10.37,2013-09-03 15:12:00,
2013-09-03 10:17:00,70.2,60.7,28.90,SW,225,10.4,10.4,72,0.00,,,0.00,WeatherDisplay:10.37,2013-09-03 15:17:00,
2013-09-03 10:22:00,70.9,61.0,28.90,SE,135,10.4,10.4,71,0.00,,,0.00,WeatherDisplay:10.37,2013-09-03 15:22:00,
2013-09-03 10:27:00,71.4,61.9,28.90,South,180,11.4,11.4,72,0.00,,,0.00,WeatherDisplay:10.37,2013-09-03 15:27:00,
2013-09-03 10:32:00,72.0,61.6,28.90,SE,135,8.1,8.1,70,0.00,,,0.00,WeatherDisplay:10.37,2013-09-03 15:32:00,
2013-09-03 10:37:00,72.3,62.0,28.90,SSW,202,8.1,8.1,70,0.00,,,0.00,WeatherDisplay:10.37,2013-09-03 15:37:00,
2013-09-03 10:42:00,72.5,61.7,28.90,South,180,11.5,11.5,69,0.00,,,0.00,WeatherDisplay:10.37,2013-09-03 15:42:00,
2013-09-03 10:47:00,72.9,62.1,28.89,SE,135,9.2,9.2,69,0.00,,,0.00,WeatherDisplay:10.37,2013-09-03 15:47:00,
2013-09-03 10:52:00,73.0,62.3,28.89,SE,135,10.4,10.4,69,0.00,,,0.00,WeatherDisplay:10.37,2013-09-03 15:52:00,
2013-09-03 10:57:00,73.4,62.2,28.89,South,180,11.5,11.5,68,0.00,,,0.00,WeatherDisplay:10.37,2013-09-03 15:57:00,
2013-09-03 11:02:00,73.4,62.2,28.89,South,180,12.7,12.7,68,0.00,,,0.00,WeatherDisplay:10.37,2013-09-03 16:02:00,
2013-09-03 11:07:00,73.6,62.4,28.89,South,180,12.7,12.7,68,0.00,,,0.00,WeatherDisplay:10.37,2013-09-03 16:07:00,
2013-09-03 11:12:00,74.1,63.3,28.89,SSW,202,12.7,12.7,69,0.00,,,0.00,WeatherDisplay:10.37,2013-09-03 16:12:00,
2013-09-03 11:17:00,73.9,62.3,28.89,South,180,13.8,13.8,67,0.00,,,0.00,WeatherDisplay:10.37,2013-09-03 16:17:00,
2013-09-03 11:22:00,74.3,63.5,28.88,SSW,202,10.4,10.4,69,0.00,,,0.00,WeatherDisplay:10.37,2013-09-03 16:22:00,
2013-09-03 11:27:00,74.7,63.8,28.89,South,180,12.7,12.7,69,0.00,,,0.00,WeatherDisplay:10.37,2013-09-03 16:27:00,
2013-09-03 11:32:00,74.8,63.6,28.89,South,180,12.7,12.7,68,0.00,,,0.00,WeatherDisplay:10.37,2013-09-03 16:32:00,
2013-09-03 11:37:00,74.8,63.6,28.88,South,180,12.7,12.7,68,0.00,,,0.00,WeatherDisplay:10.37,2013-09-03 16:37:00,
2013-09-03 11:42:00,75.0,64.6,28.88,South,180,13.8,13.8,70,0.00,,,0.00,WeatherDisplay:10.37,2013-09-03 16:42:00,
2013-09-03 11:47:00,75.6,65.1,28.89,South,180,10.4,10.4,70,0.00,,,0.00,WeatherDisplay:10.37,2013-09-03 16:47:00,
2013-09-03 11:52:00,75.9,65.0,28.88,South,180,10.4,10.4,69,0.00,,,0.00,WeatherDisplay:10.37,2013-09-03 16:52:00,
2013-09-03 11:57:00,76.5,65.1,28.88,South,180,11.5,11.5,68,0.00,,,0.00,WeatherDisplay:10.37,2013-09-03 16:57:00,
2013-09-03 12:02:00,76.8,65.9,28.88,South,180,12.7,12.7,69,0.00,,,0.00,WeatherDisplay:10.37,2013-09-03 17:02:00,
2013-09-03 12:07:00,77.0,66.0,28.88,South,180,12.7,12.7,69,0.00,,,0.00,WeatherDisplay:10.37,2013-09-03 17:07:00,
2013-09-03 12:12:00,77.4,66.4,28.87,South,180,10.4,10.4,69,0.00,,,0.00,WeatherDisplay:10.37,2013-09-03 17:12:00,
2013-09-03 12:17:00,77.4,66.4,28.87,South,180,15.0,15.0,69,0.00,,,0.00,WeatherDisplay:10.37,2013-09-03 17:17:00,
2013-09-03 12:22:00,77.9,66.1,28.87,SE,135,10.4,10.4,67,0.00,,,0.00,WeatherDisplay:10.37,2013-09-03 17:22:00,
2013-09-03 12:27:00,78.1,66.7,28.87,South,180,10.4,10.4,68,0.00,,,0.00,WeatherDisplay:10.37,2013-09-03 17:27:00,
2013-09-03 12:32:00,78.8,66.9,28.86,SSE,158,9.2,9.2,67,0.00,,,0.00,WeatherDisplay:10.37,2013-09-03 17:32:00,
2013-09-03 12:37:00,78.6,67.2,28.86,South,180,12.7,12.7,68,0.00,,,0.00,WeatherDisplay:10.37,2013-09-03 17:37:00,
2013-09-03 12:42:00,79.2,66.8,28.86,South,180,11.5,11.5,66,0.00,,,0.00,WeatherDisplay:10.37,2013-09-03 17:42:00,
2013-09-03 12:47:00,79.3,67.0,28.86,SW,225,13.8,13.8,66,0.00,,,0.00,WeatherDisplay:10.37,2013-09-03 17:47:00,
2013-09-03 12:52:00,79.7,67.8,28.86,South,180,11.5,11.5,67,0.00,,,0.00,WeatherDisplay:10.37,2013-09-03 17:52:00,
2013-09-03 12:57:00,80.1,67.7,28.85,South,180,10.4,10.4,66,0.00,,,0.00,WeatherDisplay:10.37,2013-09-03 17:57:00,
2013-09-03 13:02:00,80.1,67.2,28.85,South,180,10.4,10.4,65,0.00,,,0.00,WeatherDisplay:10.37,2013-09-03 18:02:00,
2013-09-03 13:07:00,80.6,68.6,28.85,South,180,10.4,10.4,67,0.00,,,0.00,WeatherDisplay:10.37,2013-09-03 18:07:00,
2013-09-03 13:12:00,81.0,67.6,28.85,South,180,11.5,11.5,64,0.00,,,0.00,WeatherDisplay:10.37,2013-09-03 18:12:00,
2013-09-03 13:17:00,80.6,66.4,28.86,South,180,12.7,12.7,62,0.00,,,0.00,WeatherDisplay:10.37,2013-09-03 18:17:00,
2013-09-03 13:22:00,80.8,67.9,28.85,South,180,15.0,15.0,65,0.00,,,0.00,WeatherDisplay:10.37,2013-09-03 18:22:00,
2013-09-03 13:27:00,81.0,68.1,28.84,South,180,15.0,15.0,65,0.00,,,0.00,WeatherDisplay:10.37,2013-09-03 18:27:00,
2013-09-03 13:32:00,81.7,67.9,28.85,South,180,11.5,11.5,63,0.00,,,0.00,WeatherDisplay:10.37,2013-09-03 18:32:00,
2013-09-03 13:38:00,81.7,67.9,28.85,South,180,10.4,10.4,63,0.00,,,0.00,WeatherDisplay:10.37,2013-09-03 18:38:00,
2013-09-03 13:43:00,81.9,68.5,28.85,SSE,158,13.8,13.8,64,0.00,,,0.00,WeatherDisplay:10.37,2013-09-03 18:43:00,
2013-09-03 13:48:00,82.0,69.1,28.85,South,180,12.7,12.7,65,0.00,,,0.00,WeatherDisplay:10.37,2013-09-03 18:48:00,
2013-09-03 13:53:00,82.2,69.3,28.85,South,180,10.4,10.4,65,0.00,,,0.00,WeatherDisplay:10.37,2013-09-03 18:53:00,
2013-09-03 13:58:00,82.8,68.9,28.85,SE,135,12.7,12.7,63,0.00,,,0.00,WeatherDisplay:10.37,2013-09-03 18:58:00,
2013-09-03 14:03:00,82.8,69.3,28.85,SE,135,8.1,8.1,64,0.00,,,0.00,WeatherDisplay:10.37,2013-09-03 19:03:00,
2013-09-03 14:08:00,83.3,70.3,28.85,South,180,8.1,8.3,65,0.00,,,0.00,WeatherDisplay:10.37,2013-09-03 19:08:00,
2013-09-03 14:13:00,83.5,69.6,28.85,SE,135,10.4,10.4,63,0.00,,,0.00,WeatherDisplay:10.37,2013-09-03 19:13:00,
2013-09-03 14:18:00,83.5,68.6,28.85,South,180,10.4,10.4,61,0.00,,,0.00,WeatherDisplay:10.37,2013-09-03 19:18:00,
2013-09-03 14:23:00,83.7,69.3,28.85,South,180,12.7,12.7,62,0.00,,,0.00,WeatherDisplay:10.37,2013-09-03 19:23:00,
2013-09-03 14:28:00,83.7,68.8,28.84,South,180,17.3,17.3,61,0.00,,,0.00,WeatherDisplay:10.37,2013-09-03 19:28:00,
2013-09-03 14:33:00,84.0,69.6,28.84,SSW,202,17.3,17.3,62,0.00,,,0.00,WeatherDisplay:10.37,2013-09-03 19:33:00,
2013-09-03 14:38:00,84.2,69.3,28.84,SW,225,11.5,11.5,61,0.00,,,0.00,WeatherDisplay:10.37,2013-09-03 19:38:00,
2013-09-03 14:43:00,84.6,68.7,28.84,South,180,16.1,16.1,59,0.00,,,0.00,WeatherDisplay:10.37,2013-09-03 19:43:00,
2013-09-03 14:48:00,84.6,69.1,28.83,South,180,12.7,12.7,60,0.00,,,0.00,WeatherDisplay:10.37,2013-09-03 19:48:00,
2013-09-03 14:53:00,83.7,68.8,28.83,South,180,12.7,12.7,61,0.00,,,0.00,WeatherDisplay:10.37,2013-09-03 19:53:00,
2013-09-03 14:58:00,83.7,69.3,28.83,South,180,12.7,12.7,62,0.00,,,0.00,WeatherDisplay:10.37,2013-09-03 19:58:00,
2013-09-03 15:03:00,83.7,68.8,28.83,South,180,12.7,12.7,61,0.00,,,0.00,WeatherDisplay:10.37,2013-09-03 20:03:00,
2013-09-03 15:08:00,84.2,69.3,28.82,South,180,12.7,12.7,61,0.00,,,0.00,WeatherDisplay:10.37,2013-09-03 20:08:00,
2013-09-03 15:13:00,84.0,68.6,28.82,SW,225,12.7,12.7,60,0.00,,,0.00,WeatherDisplay:10.37,2013-09-03 20:13:00,
2013-09-03 15:18:00,84.7,69.8,28.82,South,180,12.7,12.7,61,0.00,,,0.00,WeatherDisplay:10.37,2013-09-03 20:18:00,
2013-09-03 15:23:00,84.7,68.3,28.82,South,180,15.0,15.0,58,0.00,,,0.00,WeatherDisplay:10.37,2013-09-03 20:23:00,
2013-09-03 15:28:00,84.7,68.8,28.82,South,180,12.7,12.7,59,0.00,,,0.00,WeatherDisplay:10.37,2013-09-03 20:28:00,
2013-09-03 15:33:00,84.4,68.0,28.82,South,180,12.7,12.7,58,0.00,,,0.00,WeatherDisplay:10.37,2013-09-03 20:33:00,
2013-09-03 15:38:00,83.5,67.6,28.82,South,180,15.0,15.0,59,0.00,,,0.00,WeatherDisplay:10.37,2013-09-03 20:38:00,
2013-09-03 15:43:00,82.4,68.1,28.82,South,180,12.7,12.7,62,0.00,,,0.00,WeatherDisplay:10.37,2013-09-03 20:43:00,
2013-09-03 15:48:00,81.9,66.6,28.82,South,180,12.7,12.7,60,0.00,,,0.00,WeatherDisplay:10.37,2013-09-03 20:48:00,
2013-09-03 15:53:00,81.7,67.4,28.82,South,180,12.7,12.7,62,0.00,,,0.00,WeatherDisplay:10.37,2013-09-03 20:53:00,
2013-09-03 15:58:00,82.2,68.4,28.82,South,180,10.4,10.4,63,0.00,,,0.00,WeatherDisplay:10.37,2013-09-03 20:58:00,
2013-09-03 16:03:00,82.6,69.2,28.82,South,180,9.2,9.2,64,0.00,,,0.00,WeatherDisplay:10.37,2013-09-03 21:03:00,
2013-09-03 16:08:00,83.1,68.3,28.82,South,180,13.8,13.8,61,0.00,,,0.00,WeatherDisplay:10.37,2013-09-03 21:08:00,
2013-09-03 16:13:00,82.9,67.1,28.82,South,180,15.0,15.0,59,0.00,,,0.00,WeatherDisplay:10.37,2013-09-03 21:13:00,
2013-09-03 16:18:00,83.3,68.9,28.82,South,180,11.5,11.5,62,0.00,,,0.00,WeatherDisplay:10.37,2013-09-03 21:18:00,
2013-09-03 16:23:00,84.0,69.1,28.82,South,180,13.8,13.8,61,0.00,,,0.00,WeatherDisplay:10.37,2013-09-03 21:23:00,
2013-09-03 16:28:00,83.8,70.4,28.81,South,180,9.2,9.2,64,0.00,,,0.00,WeatherDisplay:10.37,2013-09-03 21:28:00,
2013-09-03 16:33:00,82.6,69.2,28.81,South,180,12.7,12.7,64,0.00,,,0.00,WeatherDisplay:10.37,2013-09-03 21:33:00,
2013-09-03 16:38:00,82.0,69.6,28.82,South,180,10.4,10.4,66,0.00,,,0.00,WeatherDisplay:10.37,2013-09-03 21:38:00,
2013-09-03 16:43:00,81.7,70.1,28.82,South,180,9.2,9.2,68,0.00,,,0.00,WeatherDisplay:10.37,2013-09-03 21:43:00,
2013-09-03 16:48:00,81.7,70.9,28.81,South,180,5.8,5.8,70,0.00,,,0.00,WeatherDisplay:10.37,2013-09-03 21:48:00,
2013-09-03 16:53:00,81.9,71.1,28.81,South,180,8.1,8.1,70,0.00,,,0.00,WeatherDisplay:10.37,2013-09-03 21:53:00,
2013-09-03 16:58:00,82.0,71.3,28.82,SW,225,8.1,8.1,70,0.00,,,0.00,WeatherDisplay:10.37,2013-09-03 21:58:00,
2013-09-03 17:03:00,82.0,70.4,28.82,South,180,8.1,8.1,68,0.00,,,0.00,WeatherDisplay:10.37,2013-09-03 22:03:00,
2013-09-03 17:08:00,82.0,71.3,28.82,South,180,8.1,8.1,70,0.00,,,0.00,WeatherDisplay:10.37,2013-09-03 22:08:00,
2013-09-03 17:13:00,81.7,70.5,28.82,South,180,6.9,6.9,69,0.00,,,0.00,WeatherDisplay:10.37,2013-09-03 22:13:00,
2013-09-03 17:18:00,81.7,70.9,28.82,South,180,5.8,5.8,70,0.00,,,0.00,WeatherDisplay:10.37,2013-09-03 22:18:00,
2013-09-03 17:23:00,81.7,70.9,28.83,South,180,5.8,5.8,70,0.00,,,0.00,WeatherDisplay:10.37,2013-09-03 22:23:00,
2013-09-03 17:28:00,81.9,71.1,28.82,South,180,5.8,5.8,70,0.00,,,0.00,WeatherDisplay:10.37,2013-09-03 22:28:00,
2013-09-03 17:33:00,81.9,71.5,28.82,SE,135,5.8,5.8,71,0.00,,,0.00,WeatherDisplay:10.37,2013-09-03 22:33:00,
2013-09-03 17:38:00,81.5,71.6,28.83,SE,135,4.6,4.6,72,0.00,,,0.00,WeatherDisplay:10.37,2013-09-03 22:38:00,
2013-09-03 17:43:00,81.3,71.4,28.82,South,180,6.9,6.9,72,0.00,,,0.00,WeatherDisplay:10.37,2013-09-03 22:43:00,
2013-09-03 17:48:00,81.0,71.5,28.82,South,180,6.9,6.9,73,0.00,,,0.00,WeatherDisplay:10.37,2013-09-03 22:48:00,
2013-09-03 17:53:00,81.0,71.9,28.82,South,180,4.6,4.6,74,0.00,,,0.00,WeatherDisplay:10.37,2013-09-03 22:53:00,
2013-09-03 17:58:00,80.8,71.7,28.82,SSE,158,5.8,5.8,74,0.00,,,0.00,WeatherDisplay:10.37,2013-09-03 22:58:00,
2013-09-03 18:03:00,80.6,71.5,28.82,South,180,3.5,3.5,74,0.00,,,0.00,WeatherDisplay:10.37,2013-09-03 23:03:00,
2013-09-03 18:08:00,80.2,71.6,28.82,SE,135,3.5,3.5,75,0.00,,,0.00,WeatherDisplay:10.37,2013-09-03 23:08:00,
2013-09-03 18:13:00,80.1,71.4,28.82,South,180,4.6,4.6,75,0.00,,,0.00,WeatherDisplay:10.37,2013-09-03 23:13:00,
2013-09-03 18:18:00,79.9,71.6,28.82,South,180,4.6,4.6,76,0.00,,,0.00,WeatherDisplay:10.37,2013-09-03 23:18:00,
2013-09-03 18:23:00,79.7,71.5,28.82,South,180,3.5,3.5,76,0.00,,,0.00,WeatherDisplay:10.37,2013-09-03 23:23:00,
2013-09-03 18:28:00,79.5,71.7,28.82,South,180,4.6,4.6,77,0.00,,,0.00,WeatherDisplay:10.37,2013-09-03 23:28:00,
2013-09-03 18:33:00,79.3,71.9,28.82,SE,135,3.5,3.5,78,0.00,,,0.00,WeatherDisplay:10.37,2013-09-03 23:33:00,
2013-09-03 18:38:00,79.2,72.1,28.82,SSE,158,3.5,3.5,79,0.00,,,0.00,WeatherDisplay:10.37,2013-09-03 23:38:00,
2013-09-03 18:43:00,78.8,71.7,28.81,South,180,3.5,3.5,79,0.00,,,0.00,WeatherDisplay:10.37,2013-09-03 23:43:00,
2013-09-03 18:48:00,78.6,71.9,28.81,East,90,3.5,3.5,80,0.00,,,0.00,WeatherDisplay:10.37,2013-09-03 23:48:00,
2013-09-03 18:53:00,78.3,71.6,28.81,SE,135,3.1,3.1,80,0.00,,,0.00,WeatherDisplay:10.37,2013-09-03 23:53:00,
2013-09-03 18:58:00,78.1,71.4,28.82,South,180,4.6,4.6,80,0.00,,,0.00,WeatherDisplay:10.37,2013-09-03 23:58:00,
2013-09-03 19:03:00,78.1,71.4,28.82,SE,135,5.8,5.8,80,0.00,,,0.00,WeatherDisplay:10.37,2013-09-04 00:03:00,
2013-09-03 19:08:00,77.9,70.9,28.81,SE,135,5.8,5.8,79,0.00,,,0.00,WeatherDisplay:10.37,2013-09-04 00:08:00,
2013-09-03 19:13:00,77.9,70.9,28.81,South,180,3.5,3.5,79,0.00,,,0.00,WeatherDisplay:10.37,2013-09-04 00:13:00,
2013-09-03 19:18:00,77.4,70.3,28.82,South,180,3.5,3.5,79,0.00,,,0.00,WeatherDisplay:10.37,2013-09-04 00:18:00,
2013-09-03 19:23:00,77.2,70.5,28.81,South,180,3.5,3.5,80,0.00,,,0.00,WeatherDisplay:10.37,2013-09-04 00:23:00,
2013-09-03 19:28:00,76.8,70.5,28.81,SE,135,3.5,3.5,81,0.00,,,0.00,WeatherDisplay:10.37,2013-09-04 00:28:00,
2013-09-03 19:33:00,76.6,70.4,28.81,East,90,3.5,3.5,81,0.00,,,0.00,WeatherDisplay:10.37,2013-09-04 00:33:00,
2013-09-03 19:38:00,76.5,70.2,28.80,South,180,4.6,4.6,81,0.00,,,0.00,WeatherDisplay:10.37,2013-09-04 00:38:00,
2013-09-03 19:43:00,76.1,69.8,28.81,SSE,158,3.5,3.5,81,0.00,,,0.00,WeatherDisplay:10.37,2013-09-04 00:43:00,
2013-09-03 19:48:00,75.9,70.0,28.80,South,180,3.5,3.5,82,0.00,,,0.00,WeatherDisplay:10.37,2013-09-04 00:48:00,
2013-09-03 19:53:00,75.6,70.0,28.80,South,180,4.6,4.6,83,0.00,,,0.00,WeatherDisplay:10.37,2013-09-04 00:53:00,
2013-09-03 19:58:00,75.2,69.7,28.81,SW,225,2.3,2.3,83,0.00,,,0.00,WeatherDisplay:10.37,2013-09-04 00:58:00,
2013-09-03 20:03:00,75.2,69.7,28.82,SW,225,1.2,0.0,83,0.00,,,0.00,WeatherDisplay:10.37,2013-09-04 01:03:00,
2013-09-03 20:08:00,74.8,69.3,28.82,East,90,1.2,0.0,83,0.00,,,0.00,WeatherDisplay:10.37,2013-09-04 01:08:00,
2013-09-03 20:13:00,74.7,69.2,28.82,East,90,0.0,0.0,83,0.00,,,0.00,WeatherDisplay:10.37,2013-09-04 01:13:00,
2013-09-03 20:18:00,74.5,69.0,28.82,SW,225,1.2,1.6,83,0.00,,,0.00,WeatherDisplay:10.37,2013-09-04 01:18:00,
2013-09-03 20:23:00,74.5,69.3,28.82,SW,225,1.2,1.2,84,0.00,,,0.00,WeatherDisplay:10.37,2013-09-04 01:23:00,
2013-09-03 20:28:00,74.5,69.3,28.82,SW,225,1.2,0.0,84,0.00,,,0.00,WeatherDisplay:10.37,2013-09-04 01:28:00,
2013-09-03 20:33:00,74.3,69.1,28.82,SW,225,1.2,0.0,84,0.00,,,0.00,WeatherDisplay:10.37,2013-09-04 01:33:00,
2013-09-03 20:38:00,74.1,69.0,28.82,SW,225,0.0,0.0,84,0.00,,,0.00,WeatherDisplay:10.37,2013-09-04 01:38:00,
2013-09-03 20:43:00,73.8,69.0,28.82,SW,225,1.2,1.2,85,0.00,,,0.00,WeatherDisplay:10.37,2013-09-04 01:43:00,
2013-09-03 20:48:00,73.6,69.1,28.82,South,180,2.3,2.3,86,0.00,,,0.00,WeatherDisplay:10.37,2013-09-04 01:48:00,
2013-09-03 20:53:00,73.4,69.3,28.82,South,180,2.3,2.3,87,0.00,,,0.00,WeatherDisplay:10.37,2013-09-04 01:53:00,
2013-09-03 20:58:00,73.0,69.3,28.82,South,180,2.3,2.3,88,0.00,,,0.00,WeatherDisplay:10.37,2013-09-04 01:58:00,
2013-09-03 21:03:00,73.0,69.3,28.82,South,180,2.3,2.3,88,0.00,,,0.00,WeatherDisplay:10.37,2013-09-04 02:03:00,
2013-09-03 21:08:00,72.7,69.6,28.82,South,180,3.5,3.5,90,0.00,,,0.00,WeatherDisplay:10.37,2013-09-04 02:08:00,
2013-09-03 21:13:00,72.5,69.4,28.82,South,180,2.3,2.3,90,0.00,,,0.00,WeatherDisplay:10.37,2013-09-04 02:13:00,
2013-09-03 21:18:00,72.3,69.2,28.82,SW,225,2.3,2.3,90,0.00,,,0.00,WeatherDisplay:10.37,2013-09-04 02:18:00,
2013-09-03 21:23:00,72.1,69.4,28.82,South,180,3.5,3.5,91,0.00,,,0.00,WeatherDisplay:10.37,2013-09-04 02:23:00,
2013-09-03 21:28:00,72.1,69.4,28.82,SSW,202,4.6,4.6,91,0.00,,,0.00,WeatherDisplay:10.37,2013-09-04 02:28:00,
2013-09-03 21:33:00,72.1,69.0,28.81,South,180,3.5,3.5,90,0.00,,,0.00,WeatherDisplay:10.37,2013-09-04 02:33:00,
2013-09-03 21:38:00,72.1,69.0,28.81,South,180,3.5,3.5,90,0.00,,,0.00,WeatherDisplay:10.37,2013-09-04 02:38:00,
2013-09-03 21:43:00,72.1,69.0,28.82,South,180,3.5,3.5,90,0.00,,,0.00,WeatherDisplay:10.37,2013-09-04 02:43:00,
2013-09-03 21:48:00,72.1,69.0,28.82,South,180,3.5,3.5,90,0.00,,,0.00,WeatherDisplay:10.37,2013-09-04 02:48:00,
2013-09-03 21:53:00,72.3,69.2,28.82,South,180,3.5,3.5,90,0.00,,,0.00,WeatherDisplay:10.37,2013-09-04 02:53:00,
2013-09-03 21:58:00,72.1,69.0,28.82,South,180,3.5,3.5,90,0.00,,,0.00,WeatherDisplay:10.37,2013-09-04 02:58:00,
2013-09-03 22:03:00,72.1,69.0,28.82,South,180,3.5,3.5,90,0.00,,,0.00,WeatherDisplay:10.37,2013-09-04 03:03:00,
2013-09-03 22:08:00,72.1,69.0,28.82,SE,135,3.5,3.5,90,0.00,,,0.00,WeatherDisplay:10.37,2013-09-04 03:08:00,
2013-09-03 22:13:00,72.1,69.0,28.82,SE,135,2.3,0.0,90,0.00,,,0.00,WeatherDisplay:10.37,2013-09-04 03:13:00,
2013-09-03 22:18:00,72.1,69.0,28.82,South,180,4.6,4.6,90,0.00,,,0.00,WeatherDisplay:10.37,2013-09-04 03:18:00,
2013-09-03 22:23:00,72.3,69.2,28.82,South,180,3.5,3.5,90,0.00,,,0.00,WeatherDisplay:10.37,2013-09-04 03:23:00,
2013-09-03 22:28:00,72.5,69.1,28.82,SE,135,3.5,3.5,89,0.00,,,0.00,WeatherDisplay:10.37,2013-09-04 03:28:00,
2013-09-03 22:33:00,72.7,69.2,28.82,SE,135,3.5,3.5,89,0.00,,,0.00,WeatherDisplay:10.37,2013-09-04 03:33:00,
2013-09-03 22:38:00,72.9,69.1,28.83,South,180,5.8,5.8,88,0.00,,,0.00,WeatherDisplay:10.37,2013-09-04 03:38:00,
2013-09-03 22:43:00,73.0,69.3,28.83,SE,135,3.5,3.5,88,0.00,,,0.00,WeatherDisplay:10.37,2013-09-04 03:43:00,
2013-09-03 22:48:00,73.2,69.1,28.83,ESE,112,3.5,3.5,87,0.00,,,0.00,WeatherDisplay:10.37,2013-09-04 03:48:00,
2013-09-03 22:53:00,73.2,69.1,28.83,SE,135,4.6,4.6,87,0.00,,,0.00,WeatherDisplay:10.37,2013-09-04 03:53:00,
2013-09-03 22:58:00,73.2,69.1,28.83,SE,135,4.6,4.6,87,0.00,,,0.00,WeatherDisplay:10.37,2013-09-04 03:58:00,
2013-09-03 23:01:00,73.2,69.1,28.83,SE,135,5.8,5.8,87,0.00,,,0.00,WeatherDisplay:10.37,2013-09-04 04:01:00,
2013-09-03 23:02:00,73.2,69.1,28.83,SE,135,5.8,5.8,87,0.00,,,0.00,WeatherDisplay:10.37,2013-09-04 04:02:00,
2013-09-03 23:03:00,73.2,69.1,28.83,SE,135,5.8,5.8,87,0.00,,,0.00,WeatherDisplay:10.37,2013-09-04 04:03:00,
2013-09-03 23:08:00,73.6,68.8,28.83,SE,135,5.8,5.8,85,0.00,,,0.00,WeatherDisplay:10.37,2013-09-04 04:08:00,
2013-09-03 23:13:00,73.6,68.4,28.83,South,180,4.6,4.6,84,0.00,,,0.00,WeatherDisplay:10.37,2013-09-04 04:13:00,
2013-09-03 23:18:00,73.4,68.6,28.83,South,180,3.5,3.5,85,0.00,,,0.00,WeatherDisplay:10.37,2013-09-04 04:18:00,
2013-09-03 23:23:00,73.0,68.3,28.82,SE,135,5.8,5.8,85,0.00,,,0.00,WeatherDisplay:10.37,2013-09-04 04:23:00,
2013-09-03 23:28:00,72.9,68.4,28.82,South,180,5.8,5.8,86,0.00,,,0.00,WeatherDisplay:10.37,2013-09-04 04:28:00,
2013-09-03 23:33:00,72.5,68.4,28.83,South,180,3.5,3.5,87,0.00,,,0.00,WeatherDisplay:10.37,2013-09-04 04:33:00,
2013-09-03 23:38:00,72.3,68.2,28.83,SE,135,3.5,3.5,87,0.00,,,0.00,WeatherDisplay:10.37,2013-09-04 04:38:00,
2013-09-03 23:43:00,72.3,68.2,28.84,East,90,4.6,4.6,87,0.00,,,0.00,WeatherDisplay:10.37,2013-09-04 04:43:00,
2013-09-03 23:48:00,72.5,68.4,28.84,East,90,4.6,4.6,87,0.00,,,0.00,WeatherDisplay:10.37,2013-09-04 04:48:00,
2013-09-03 23:53:00,72.5,68.1,28.84,East,90,3.5,3.5,86,0.00,,,0.00,WeatherDisplay:10.37,2013-09-04 04:53:00,
2013-09-03 23:58:00,72.5,67.7,28.84,SE,135,2.3,2.3,85,0.00,,,0.00,WeatherDisplay:10.37,2013-09-04 04:58:00,